Date String (YYYY-MM-DD hh:mm:ss) UTC,Instrument flags,absolute air pressure of the measurement (hPa),sample flow rate (lpm),inlet stack bypass flow (lpm),air temperature of the measurement (°C),ambient temperature measured by the external sensor (°C),aerosol sample conditioner tube jacket temperature (°C),OPC LED temperature (°C),internal box temperature (°C),relative humidity of the measurement (%),span deviation,mass concentration of particles derived from Lorenz-Mie calculation of OPC scattering (μg/m³),mass concentration of particles derived from Lorenz-Mie calculation of OPC scattering (μg/m³),mass concentration of particles derived from Lorenz-Mie calculation of OPC scattering (μg/m³)
DateTimeUTC,F1_M11,P_M11,Q1_M11,Q2_M11,T1_M11,T2_M11,T3_M11,T4_M11,T5_M11,U1_M11,ZSPAN_M11,X2_M11,X0_M11,X1_M11
2023-06-04 16:00:00,SystemResetWarning,0835.2,5.00,000.00,030.3,028.8,000.0,038.7,031.9,28.4,0000.0,0001.63,0002.66,0001.22
2023-06-04 16:01:00,SystemResetWarning,0835.2,5.00,000.00,030.3,028.8,000.0,038.7,032.0,28.3,0000.0,0001.64,0002.70,0001.22
2023-06-04 16:02:00,SystemResetWarning,0835.1,5.00,000.00,030.3,028.8,000.0,038.7,032.0,28.5,0000.0,0001.64,0002.63,0001.21
2023-06-04 16:03:00,SystemResetWarning,0834.7,5.00,000.00,030.3,028.8,000.0,038.7,031.9,28.6,0000.0,0001.69,0002.76,0001.21
2023-06-04 16:04:00,SystemResetWarning,0834.7,5.00,000.00,030.3,028.8,000.0,038.7,031.9,28.7,0000.0,0001.69,0002.73,0001.22
2023-06-04 16:05:00,SystemResetWarning,0834.9,5.00,000.00,030.3,028.8,000.0,038.7,031.9,28.5,0000.0,0001.71,0002.87,0001.22
2023-06-04 16:06:00,SystemResetWarning,0834.8,5.00,000.00,030.3,028.8,000.0,038.7,031.9,28.5,0000.0,0001.71,0002.77,0001.23
2023-06-04 16:07:00,SystemResetWarning,0834.8,5.00,000.00,030.3,028.8,000.0,038.7,031.9,28.3,0000.0,0001.67,0002.65,0001.23
2023-06-04 16:08:00,SystemResetWarning,0834.7,5.00,000.00,030.3,028.8,000.0,038.7,031.9,28.4,0000.0,0001.69,0002.74,0001.24
2023-06-04 16:09:00,SystemResetWarning,0834.7,5.00,000.00,030.3,028.8,000.0,038.7,031.9,28.6,0000.0,0001.78,0003.15,0001.26
2023-06-04 16:10:00,SystemResetWarning,0834.8,4.99,000.00,030.3,028.8,000.0,038.7,031.9,28.4,0000.0,0001.79,0003.56,0001.26
2023-06-04 16:11:00,SystemResetWarning,0835.0,5.00,000.00,030.3,028.8,000.0,038.7,032.0,28.4,0000.0,0001.79,0003.61,0001.26
2023-06-04 16:12:00,SystemResetWarning,0835.3,5.00,000.00,030.3,028.8,000.0,038.7,032.0,28.5,0000.0,0001.78,0003.56,0001.26
2023-06-04 16:13:00,SystemResetWarning,0835.3,5.01,000.00,030.3,028.8,000.0,038.7,032.0,28.5,0000.0,0001.79,0003.56,0001.26
2023-06-04 16:14:00,SystemResetWarning,0834.9,5.01,000.00,030.3,028.8,000.0,038.7,031.9,28.4,0000.0,0001.81,0003.55,0001.29
2023-06-04 16:15:00,SystemResetWarning,0834.9,5.00,000.00,030.3,028.8,000.0,038.7,031.9,28.7,0000.0,0001.84,0003.62,0001.30
2023-06-04 16:16:00,SystemResetWarning,0835.0,5.00,000.00,030.3,028.8,000.0,038.7,031.9,28.8,0000.0,0001.87,0003.61,0001.30
2023-06-04 16:17:00,SystemResetWarning,0835.0,4.99,000.00,030.3,028.8,000.0,038.7,031.9,28.8,0000.0,0001.93,0003.67,0001.31
2023-06-04 16:18:00,SystemResetWarning,0835.0,4.99,000.00,030.3,028.8,000.0,038.7,031.9,28.8,0000.0,0001.95,0003.70,0001.32
2023-06-04 16:19:00,SystemResetWarning,0835.0,5.00,000.00,030.3,028.7,000.0,038.7,031.9,28.7,0000.0,0001.97,0003.86,0001.33
2023-06-04 16:20:00,SystemResetWarning,0835.0,5.01,000.00,030.3,028.7,000.0,038.7,031.9,28.7,0000.0,0001.93,0003.64,0001.34
2023-06-04 16:21:00,SystemResetWarning,0835.0,5.00,000.00,030.3,028.7,000.0,038.7,031.9,28.7,0000.0,0001.97,0003.39,0001.36
2023-06-04 16:22:00,SystemResetWarning,0835.0,4.99,000.00,030.3,028.7,000.0,038.7,031.9,28.6,0000.0,0001.99,0003.55,0001.36
2023-06-04 16:23:00,SystemResetWarning,0835.0,4.99,000.00,030.3,028.7,000.0,038.7,031.9,28.6,0000.0,0002.07,0003.77,0001.38
2023-06-04 16:24:00,SystemResetWarning,0835.0,4.99,000.00,030.3,028.7,000.0,038.7,031.9,29.0,0000.0,0002.07,0003.73,0001.41
2023-06-04 16:25:00,SystemResetWarning,0834.9,5.00,000.00,030.3,028.7,000.0,038.7,031.9,29.0,0000.0,0002.13,0003.84,0001.43
2023-06-04 16:26:00,SystemResetWarning,0834.8,5.02,000.00,030.3,028.7,000.0,038.7,031.9,28.8,0000.0,0002.16,0003.93,0001.43
2023-06-04 16:27:00,SystemResetWarning,0834.9,5.01,000.00,030.3,028.8,000.0,038.7,031.9,28.9,0000.0,0002.16,0004.05,0001.43
2023-06-04 16:28:00,SystemResetWarning,0835.4,4.99,000.00,030.3,028.8,000.0,038.7,031.9,28.8,0000.0,0002.11,0004.00,0001.42
2023-06-04 16:29:00,SystemResetWarning,0835.3,5.00,000.00,030.3,028.8,000.0,038.7,031.9,28.5,0000.0,0002.08,0003.96,0001.40
2023-06-04 16:30:00,SystemResetWarning,0835.4,5.00,000.00,030.3,028.8,000.0,038.7,031.9,28.4,0000.0,0002.06,0003.83,0001.39
2023-06-04 16:31:00,SystemResetWarning,0835.4,5.00,000.00,030.3,028.8,000.0,038.7,031.9,28.4,0000.0,0002.07,0003.75,0001.38
2023-06-04 16:32:00,SystemResetWarning,0835.4,5.00,000.00,030.3,028.8,000.0,038.7,032.0,28.5,0000.0,0002.03,0003.68,0001.37
2023-06-04 16:33:00,SystemResetWarning,0835.3,5.01,000.00,030.3,028.8,000.0,038.7,032.0,28.5,0000.0,0001.96,0003.42,0001.35
2023-06-04 16:34:00,SystemResetWarning,0835.3,5.00,000.00,030.3,028.8,000.0,038.7,032.0,28.6,0000.0,0001.93,0003.36,0001.33
2023-06-04 16:35:00,SystemResetWarning,0835.3,5.01,000.00,030.3,028.8,000.0,038.7,032.0,28.5,0000.0,0001.91,0003.72,0001.30
2023-06-04 16:36:00,SystemResetWarning,0834.8,5.00,000.00,030.3,028.8,000.0,038.7,031.9,28.4,0000.0,0001.83,0003.67,0001.26
2023-06-04 16:37:00,SystemResetWarning,0835.0,4.99,000.00,030.3,028.8,000.0,038.7,031.9,28.3,0000.0,0001.73,0003.47,0001.24
2023-06-04 16:38:00,SystemResetWarning,0835.4,5.00,000.00,030.3,028.8,000.0,038.7,032.0,28.3,0000.0,0001.70,0003.31,0001.22
2023-06-04 16:39:00,SystemResetWarning,0835.3,5.00,000.00,030.3,028.8,000.0,038.7,032.0,28.2,0000.0,0001.71,0003.22,0001.22
2023-06-04 16:40:00,SystemResetWarning,0835.4,5.01,000.00,030.3,028.8,000.0,038.7,032.0,28.2,0000.0,0001.69,0003.24,0001.21
2023-06-04 16:41:00,SystemResetWarning,0835.4,5.01,000.00,030.3,028.8,000.0,038.7,032.0,28.3,0000.0,0001.69,0003.25,0001.21
2023-06-04 16:42:00,SystemResetWarning,0835.3,5.00,000.00,030.3,028.8,000.0,038.7,032.0,28.5,0000.0,0001.71,0003.25,0001.22
2023-06-04 16:43:00,SystemResetWarning,0835.3,5.00,000.00,030.4,028.8,000.0,038.7,032.0,28.6,0000.0,0001.72,0003.24,0001.22
2023-06-04 16:44:00,SystemResetWarning,0834.9,5.00,000.00,030.4,028.8,000.0,038.7,032.0,28.8,0000.0,0001.73,0003.25,0001.22
2023-06-04 16:45:00,SystemResetWarning,0834.9,5.00,000.00,030.4,028.8,000.0,038.8,032.0,28.8,0000.0,0001.71,0003.14,0001.23
2023-06-04 16:46:00,SystemResetWarning,0834.9,4.99,000.00,030.4,028.8,000.0,038.8,032.0,28.8,0000.0,0001.72,0003.01,0001.22
2023-06-04 16:47:00,SystemResetWarning,0835.0,5.00,000.00,030.4,028.8,000.0,038.8,032.0,28.9,0000.0,0001.70,0002.79,0001.23
2023-06-04 16:48:00,SystemResetWarning,0835.0,4.99,000.00,030.4,028.8,000.0,038.8,032.0,28.9,0000.0,0001.70,0002.77,0001.24
2023-06-04 16:49:00,SystemResetWarning,0834.9,5.00,000.00,030.4,028.8,000.0,038.8,032.0,29.0,0000.0,0001.70,0002.75,0001.25
2023-06-04 16:50:00,SystemResetWarning,0835.0,5.00,000.00,030.4,028.9,000.0,038.8,032.0,29.1,0000.0,0001.68,0002.72,0001.25
2023-06-04 16:51:00,SystemResetWarning,0835.0,5.00,000.00,030.4,028.9,000.0,038.8,032.0,29.3,0000.0,0001.70,0002.86,0001.26
2023-06-04 16:52:00,SystemResetWarning,0835.0,5.00,000.00,030.4,028.9,000.0,038.8,032.0,29.3,0000.0,0001.74,0002.93,0001.28
2023-06-04 16:53:00,SystemResetWarning,0835.0,5.00,000.00,030.4,028.9,000.0,038.8,032.0,29.3,0000.0,0001.71,0002.90,0001.27
2023-06-04 16:54:00,SystemResetWarning,0834.9,5.00,000.00,030.4,028.8,000.0,038.8,032.0,29.2,0000.0,0001.66,0002.87,0001.24
2023-06-04 16:55:00,SystemResetWarning,0834.9,5.00,000.00,030.4,028.9,000.0,038.8,032.0,29.2,0000.0,0001.68,0003.02,0001.23
2023-06-04 16:56:00,SystemResetWarning,0834.8,5.00,000.00,030.4,028.9,000.0,038.8,032.0,29.3,0000.0,0001.65,0002.98,0001.21
2023-06-04 16:57:00,SystemResetWarning,0835.2,5.00,000.00,030.4,028.9,000.0,038.8,032.0,29.4,0000.0,0001.62,0003.20,0001.20
2023-06-04 16:58:00,SystemResetWarning,0835.3,5.00,000.00,030.4,028.9,000.0,038.8,032.0,29.2,0000.0,0001.60,0003.75,0001.18
2023-06-04 16:59:00,SystemResetWarning,0835.4,5.00,000.00,030.4,028.9,000.0,038.8,032.0,29.1,0000.0,0001.60,0003.79,0001.15
